Orbital Elements at Epoch 2459200.5 (2020-Dec-17.0) TDB
Reference: JPL 20 (heliocentric ecliptic J2000)
Element | Value | Uncertainty (1-sigma) | Units |
e | .0858527699066446 | 5.179e-08 | |
a | 2.365788490470975 | 1.306e-08 | au |
q | 2.162678995550782 | 1.1853e-07 | au |
i | 3.485163038531889 | 4.3815e-06 | deg |
node | 290.7631457346278 | 8.7018e-05 | deg |
peri | 280.8734076293841 | 9.1515e-05 | deg |
M | 178.2282177415842 | 2.6217e-05 | deg |
tp | 2458542.484290249004 (2019-Feb-27.98429025) | 9.738e-05 | TDB |
period | 1329.114202633293 3.64 | 1.1006e-05 3.013e-08 | d yr |
n | .2708570860854199 | 2.2429e-09 | deg/d |
Q | 2.568897985391168 | 1.4182e-08 | au |
|
| | Orbit Determination Parameters
Additional Information
|